Weather History for PAKP - March, 2013

Change the Weather History Date:

Sunday, March 17, 2013

  Actual Average Record
Temperature  
Mean Temperature 4 °F -  
Max Temperature 14 °F 0 °F 24 °F (2002)
Min Temperature -7 °F -10 °F -34 °F (2008)
Degree Days  
Heating Degree Days 62    
Moisture  
Dew Point -12 °F    
Average Humidity 49    
Maximum Humidity 60    
Minimum Humidity 40    
Precipitation  
Precipitation 0.00 in - - ()
Sea Level Pressure  
Sea Level Pressure 30.12 in    
Wind  
Wind Speed 5 mph (ENE)    
Max Wind Speed 18 mph    
Max Gust Speed 22 mph    
Visibility 10 miles    
Events      
Averages and records for this station are not official NWS values.
T = Trace of Precipitation, MM = Missing Value Source: NWS Daily Summary

Daily Weather History Graph

Daily Weather History Graph

Search for Another Location

Airport or City:

Trip Planner

Search our weather history database for the weather conditions in past years. The results will help you decide how hot, cold, wet, or windy it might be!

Date:

Astronomy

Mar. 17, 2013 Rise Set
Actual Time 8:17 AM AKDT 8:15 PM AKDT
Civil Twilight 7:21 AM AKDT 9:11 PM AKDT
Nautical Twilight 6:12 AM AKDT 10:20 PM AKDT
Astronomical Twilight 4:50 AM AKDT 11:44 PM AKDT
Moon 8:29 AM AKDT (3/17) 4:36 AM AKDT (3/17)
Length of Visible Light 13h 49m
Length of Day
11h 57m
Waxing Crescent, 33% of the Moon is Illuminated
Mar 17
Waxing Crescent
Mar 19
First Quarter
Mar 27
Full
Apr 2
Last Quarter
Apr 10
New

Hourly Weather History & Observations

Time (AKDT) Temp. Windchill Dew Point Humidity Pressure Visibility Wind Dir Wind Speed Gust Speed Precip Events Conditions
12:16 AM -0.4 °F -10.4 °F -16.6 °F 46% 30.10 in 10.0 mi SSW 4.6 mph - N/A   Clear
12:36 AM -0.4 °F - -18.4 °F 43% 30.10 in 10.0 mi Calm Calm - N/A   Clear
12:56 AM -0.4 °F - -14.8 °F 51% 30.10 in 10.0 mi Calm Calm - N/A   Clear
1:16 AM -2.2 °F - -16.6 °F 50% 30.10 in 10.0 mi Calm Calm - N/A   Clear
1:36 AM -2.2 °F -14.2 °F -14.8 °F 55% 30.10 in 10.0 mi SW 5.8 mph - N/A   Clear
1:56 AM -0.4 °F -10.4 °F -14.8 °F 51% 30.11 in 10.0 mi South 4.6 mph - N/A   Clear
2:16 AM -0.4 °F -12.0 °F -18.4 °F 43% 30.11 in 10.0 mi SSW 5.8 mph - N/A   Clear
2:36 AM -2.2 °F - -18.4 °F 46% 30.11 in 10.0 mi Calm Calm - N/A   Clear
2:56 AM -2.2 °F -12.5 °F -14.8 °F 55% 30.11 in 10.0 mi SW 4.6 mph - N/A   Clear
3:16 AM -0.4 °F -12.0 °F -16.6 °F 46% 30.11 in 10.0 mi SW 5.8 mph - N/A   Clear
3:36 AM -2.2 °F - -20.2 °F 42% 30.12 in 10.0 mi Calm Calm - N/A   Clear
3:56 AM -2.2 °F -10.4 °F -16.6 °F 50% 30.12 in 10.0 mi WSW 3.5 mph - N/A   Clear
4:16 AM -2.2 °F -16.8 °F -18.4 °F 46% 30.12 in 10.0 mi SSW 8.1 mph - N/A   Clear
4:36 AM -4.0 °F -14.6 °F -18.4 °F 50% 30.12 in 10.0 mi South 4.6 mph - N/A   Clear
4:56 AM -4.0 °F - -18.4 °F 50% 30.12 in 10.0 mi Calm Calm - N/A   Clear
5:16 AM -2.2 °F - -16.6 °F 50% 30.13 in 10.0 mi Calm Calm - N/A   Clear
5:36 AM -2.2 °F -12.5 °F -18.4 °F 46% 30.13 in 10.0 mi South 4.6 mph - N/A   Clear
5:56 AM -2.2 °F -15.6 °F -16.6 °F 50% 30.13 in 10.0 mi South 6.9 mph - N/A   Clear
6:16 AM -5.8 °F -18.4 °F -20.2 °F 50% 30.13 in 10.0 mi South 5.8 mph - N/A   Clear
6:36 AM -4.0 °F - -14.8 °F 60% 30.13 in 10.0 mi Calm Calm - N/A   Clear
6:56 AM -4.0 °F - -18.4 °F 50% 30.13 in 10.0 mi Calm Calm - N/A   Clear
7:16 AM -5.8 °F -18.4 °F -18.4 °F 55% 30.13 in 10.0 mi South 5.8 mph - N/A   Clear
7:36 AM -5.8 °F -16.7 °F -16.6 °F 60% 30.13 in 10.0 mi SSW 4.6 mph - N/A   Clear
7:56 AM -5.8 °F - -18.4 °F 55% 30.13 in 10.0 mi Calm Calm - N/A   Clear
8:16 AM -7.6 °F - -20.2 °F 54% 30.14 in 10.0 mi Calm Calm - N/A   Clear
8:36 AM -7.6 °F - -18.4 °F 59% 30.13 in 10.0 mi Calm Calm - N/A   Clear
8:56 AM -5.8 °F - -18.4 °F 55% 30.13 in 10.0 mi Calm Calm - N/A   Clear
9:16 AM -4.0 °F - -14.8 °F 60% 30.13 in 10.0 mi Calm Calm - N/A   Clear
9:36 AM -4.0 °F -12.4 °F -18.4 °F 50% 30.13 in 10.0 mi SSW 3.5 mph - N/A   Clear
10:16 AM -4.0 °F - -16.6 °F 55% 30.14 in 10.0 mi Calm Calm - N/A   Clear
10:36 AM -4.0 °F - -18.4 °F 50% 30.14 in 10.0 mi Calm Calm - N/A   Clear
10:56 AM -2.2 °F - -16.6 °F 50% 30.14 in 10.0 mi Calm Calm - N/A   Clear
11:16 AM -0.4 °F - -13.0 °F 55% 30.15 in 10.0 mi Calm Calm - N/A   Clear
11:36 AM 1.4 °F - -11.2 °F 56% 30.15 in 10.0 mi Calm Calm - N/A   Clear
11:56 AM 3.2 °F - -11.2 °F 51% 30.15 in 10.0 mi Calm Calm - N/A   Clear
12:16 PM 5.0 °F - -9.4 °F 52% 30.15 in 10.0 mi Calm Calm - N/A   Clear
12:36 PM 6.8 °F - -9.4 °F 48% 30.15 in 10.0 mi Calm Calm - N/A   Clear
12:56 PM 5.0 °F - -11.2 °F 47% 30.15 in 10.0 mi Calm Calm - N/A   Clear
1:16 PM 6.8 °F - -5.8 °F 56% 30.15 in 10.0 mi Calm Calm - N/A   Clear
1:36 PM 8.6 °F 2.0 °F -9.4 °F 44% 30.15 in 10.0 mi North 3.5 mph - N/A   Clear
1:56 PM 8.6 °F 0.1 °F -9.4 °F 44% 30.15 in 10.0 mi North 4.6 mph - N/A   Clear
2:16 PM 8.6 °F -2.6 °F -5.8 °F 52% 30.15 in 10.0 mi NNE 6.9 mph - N/A   Clear
2:36 PM 10.4 °F -2.4 °F -4.0 °F 52% 30.15 in 10.0 mi North 9.2 mph - N/A   Partly Cloudy
2:56 PM 8.6 °F -1.3 °F -7.6 °F 48% 30.15 in 10.0 mi North 5.8 mph - N/A   Partly Cloudy
3:16 PM 8.6 °F -2.6 °F -7.6 °F 48% 30.15 in 10.0 mi North 6.9 mph - N/A   Clear
3:36 PM 10.4 °F 2.2 °F -5.8 °F 48% 30.14 in 10.0 mi North 4.6 mph - N/A   Clear
3:56 PM 10.4 °F 2.2 °F -5.8 °F 48% 30.13 in 10.0 mi North 4.6 mph - N/A   Clear
4:16 PM 12.2 °F -1.8 °F -5.8 °F 45% 30.13 in 10.0 mi NE 11.5 mph - N/A   Clear
4:36 PM 12.2 °F -1.0 °F -5.8 °F 45% 30.13 in 10.0 mi NE 10.4 mph - N/A   Clear
4:56 PM 14.0 °F -0.2 °F -5.8 °F 41% 30.13 in 10.0 mi NE 12.7 mph - N/A   Clear
5:16 PM 12.2 °F -1.0 °F -7.6 °F 41% 30.13 in 10.0 mi ENE 10.4 mph - N/A   Clear
5:36 PM 12.2 °F -2.5 °F -4.0 °F 48% 30.12 in 10.0 mi NE 12.7 mph 17.3 mph N/A   Clear
5:56 PM 12.2 °F -4.3 °F -5.8 °F 45% 30.11 in 10.0 mi NE 16.1 mph 20.7 mph N/A   Mostly Cloudy
6:16 PM 12.2 °F -4.3 °F -5.8 °F 45% 30.11 in 10.0 mi NE 16.1 mph 21.9 mph N/A   Mostly Cloudy
6:36 PM 12.2 °F -4.3 °F -4.0 °F 48% 30.11 in 10.0 mi NE 16.1 mph - N/A   Mostly Cloudy
6:56 PM 12.2 °F -5.3 °F -7.6 °F 41% 30.11 in 10.0 mi ENE 18.4 mph - N/A   Overcast
7:16 PM 10.4 °F -7.2 °F -7.6 °F 44% 30.11 in 10.0 mi ENE 17.3 mph - N/A   Overcast
7:36 PM 10.4 °F -7.2 °F -7.6 °F 44% 30.11 in 10.0 mi ENE 17.3 mph - N/A   Overcast
7:56 PM 8.6 °F -8.9 °F -7.6 °F 48% 30.11 in 10.0 mi ENE 16.1 mph - N/A   Mostly Cloudy
8:16 PM 10.4 °F -6.6 °F -7.6 °F 44% 30.11 in 10.0 mi ENE 16.1 mph - N/A   Partly Cloudy
8:36 PM 8.6 °F -6.3 °F -9.4 °F 44% 30.11 in 10.0 mi NE 11.5 mph 17.3 mph N/A   Clear
8:56 PM 8.6 °F -7.7 °F -9.4 °F 44% 30.10 in 10.0 mi NE 13.8 mph 17.3 mph N/A   Clear
9:16 PM 6.8 °F -10.0 °F -9.4 °F 48% 30.10 in 10.0 mi NE 13.8 mph - N/A   Clear
9:36 PM 8.6 °F -3.7 °F -7.6 °F 48% 30.09 in 10.0 mi NE 8.1 mph - N/A   Clear
9:56 PM 6.8 °F -2.0 °F -11.2 °F 44% 30.09 in 10.0 mi North 4.6 mph - N/A   Clear
10:16 PM 6.8 °F -9.3 °F -7.6 °F 52% 30.09 in 10.0 mi NE 12.7 mph 16.1 mph N/A   Clear
10:36 PM 8.6 °F -8.3 °F -7.6 °F 48% 30.09 in 10.0 mi ENE 15.0 mph - N/A   Clear
10:56 PM 6.8 °F -11.3 °F -11.2 °F 44% 30.08 in 10.0 mi ENE 16.1 mph - N/A   Clear
11:16 PM 6.8 °F -10.7 °F -13.0 °F 40% 30.08 in 10.0 mi ENE 15.0 mph - N/A   Clear
11:36 PM 6.8 °F -10.0 °F -11.2 °F 44% 30.07 in 10.0 mi ENE 13.8 mph - N/A   Clear
11:56 PM 6.8 °F -11.3 °F -13.0 °F 40% 30.07 in 10.0 mi ENE 16.1 mph - N/A   Clear